CW0500 Weather Reports


time (UTC)temp
C
wind
direction
speed
KPH
gust
KPH
rain 1hr
cm
rain 24hr
cm
rain mn
cm
humidity
%
barometer
mb
20260507051041 8 294 4.8 9.7 0.00 0.51 0.00 96 1006.6
20260507050525 8 284 4.8 12.9 0.00 0.51 0.00 97 1006.7
20260507050020 8 293 6.4 12.9 0.00 0.51 0.00 96 1006.7
20260507045525 8 282 8.0 14.5 0.00 0.51 0.00 95 1006.6
20260507045113 8 303 6.4 12.9 0.00 0.51 0.00 95 1006.5
20260507044517 8 288 6.4 12.9 0.00 0.51 0.00 95 1006.5
20260507044028 8 286 8.0 16.1 0.00 0.51 0.00 95 1006.4
20260507043524 9 271 8.0 16.1 0.00 0.51 0.00 96 1006.5
20260507043020 9 281 6.4 12.9 0.00 0.51 0.00 97 1006.3
20260507042528 9 294 6.4 12.9 0.00 0.51 0.00 97 1006.2
20260507042027 9 288 3.2 8.0 0.00 0.51 0.00 97 1006.2
20260507041539 9 331 1.6 9.7 0.00 0.51 0.00 97 1006.3
20260507041024 10 277 4.8 11.3 0.00 0.51 0.00 97 1006.6
20260507040537 10 271 6.4 11.3 0.00 0.51 0.00 96 1006.4
20260507040037 10 288 1.6 12.9 0.00 0.51 0.00 96 1006.4
20260507035525 10 297 3.2 12.9 0.00 0.51 0.51 96 1006.3
20260507035021 10 281 6.4 12.9 0.00 0.51 0.51 97 1006.6
20260507034535 10 286 3.2 11.3 0.00 0.51 0.51 96 1006.4
20260507034030 10 304 4.8 11.3 0.00 0.51 0.51 96 1006.3
20260507033548 10 281 4.8 12.9 0.03 0.51 0.51 96 1006.3
20260507033019 10 275 6.4 14.5 0.03 0.51 0.51 96 1006.1
20260507032533 10 298 8.0 12.9 0.03 0.51 0.51 96 1006.2
20260507032035 11 309 4.8 14.5 0.03 0.51 0.51 96 1006.1
20260507031533 11 279 4.8 14.5 0.08 0.51 0.51 96 1006.0
20260507031045 11 341 8.0 12.9 0.10 0.51 0.51 96 1006.0
20260507030600 11 275 3.2 12.9 0.10 0.51 0.51 98 1005.9
20260507030028 11 276 1.6 12.9 0.13 0.51 0.51 98 1006.0
20260507025527 11 288 3.2 12.9 0.13 0.51 0.51 97 1005.7
20260507025041 11 299 4.8 11.3 0.13 0.51 0.51 98 1005.8
20260507024532 11 298 6.4 14.5 0.13 0.51 0.51 97 1005.6
20260507024019 12 309 8.0 17.7 0.13 0.51 0.51 97 1005.7
20260507023549 12 277 9.7 17.7 0.10 0.48 0.48 97 1005.7
20260507023027 12 296 8.0 22.5 0.10 0.48 0.48 97 1005.8
20260507022534 12 296 11.3 22.5 0.10 0.48 0.48 97 1005.9
20260507022028 13 284 9.7 20.9 0.10 0.48 0.48 98 1005.9
20260507021519 13 278 8.0 20.9 0.05 0.43 0.43 97 1006.0
20260507021047 13 268 9.7 20.9 0.03 0.41 0.41 97 1005.8
20260507020520 13 261 14.5 19.3 0.03 0.41 0.41 97 1005.7
20260507020038 13 281 12.9 20.9 0.00 0.38 0.38 97 1005.7
20260507015520 13 279 12.9 20.9 0.00 0.38 0.38 97 1005.3
20260507015037 13 298 12.9 20.9 0.00 0.38 0.38 97 1005.3
20260507014545 13 279 9.7 20.9 0.00 0.38 0.38 98 1005.2
20260507014041 14 275 16.1 22.5 0.00 0.38 0.38 98 1005.2
20260507013518 14 284 16.1 22.5 0.00 0.38 0.38 99 1005.4
20260507013044 14 273 17.7 22.5 0.00 0.38 0.38 99 1005.3
20260507012534 14 259 14.5 22.5 0.00 0.38 0.38 99 1005.0
20260507012018 14 252 12.9 22.5 0.00 0.38 0.38 99 1004.9
20260507011538 14 261 16.1 22.5 0.00 0.38 0.38 99 1004.8
20260507010523 14 264 9.7 20.9 0.00 0.38 0.38 99 1004.7
20260507010036 14 257 11.3 19.3 0.00 0.38 0.38 98 1004.8
20260507005545 14 253 12.9 20.9 0.00 0.38 0.38 98 1004.8
20260507005047 14 275 12.9 24.1 0.00 0.38 0.38 98 1004.8
20260507004521 14 257 16.1 24.1 0.00 0.38 0.38 98 1004.8
20260507003526 14 234 12.9 24.1 0.00 0.38 0.38 98 1004.7
20260507003022 14 263 12.9 22.5 0.00 0.38 0.38 98 1004.7
20260507002533 14 249 14.5 20.9 0.00 0.38 0.38 98 1004.7
20260507002024 14 225 11.3 20.9 0.00 0.38 0.38 98 1004.5
20260507001545 14 248 12.9 22.5 0.00 0.38 0.38 98 1004.5
20260507001056 14 250 14.5 22.5 0.00 0.38 0.38 98 1004.5
20260507000528 14 232 11.3 17.7 0.00 0.38 0.38 98 1004.6
20260507000045 14 227 11.3 17.7 0.00 0.38 0.38 98 1004.4
20260506235533 14 233 11.3 22.5 0.00 0.38 0.38 98 1004.4
20260506235047 14 205 12.9 22.5 0.00 0.38 0.38 98 1004.4
20260506234521 14 242 11.3 19.3 0.00 0.38 0.38 98 1004.5
20260506234031 14 227 11.3 17.7 0.00 0.38 0.38 98 1004.4
20260506233523 14 250 8.0 16.1 0.00 0.38 0.38 98 1004.3
20260506233039 14 248 8.0 17.7 0.00 0.38 0.38 98 1004.2
20260506232551 14 214 11.3 17.7 0.00 0.38 0.38 98 1004.2
20260506232023 14 217 6.4 9.7 0.03 0.38 0.38 98 1004.1
20260506231533 14 212 6.4 12.9 0.03 0.38 0.38 98 1004.1
20260506231045 14 225 9.7 16.1 0.03 0.38 0.38 98 1004.2
20260506230027 14 223 6.4 14.5 0.03 0.38 0.38 97 1004.2
20260506225551 14 211 8.0 16.1 0.03 0.38 0.38 97 1004.2
20260506225034 14 243 11.3 16.1 0.03 0.38 0.38 97 1004.3
20260506224537 14 232 8.0 14.5 0.03 0.38 0.38 97 1004.4
20260506224051 14 246 6.4 19.3 0.03 0.38 0.38 97 1004.4
20260506223546 14 256 9.7 19.3 0.05 0.38 0.38 97 1004.5
20260506223027 14 240 9.7 20.9 0.05 0.38 0.38 97 1004.4
20260506222536 14 211 9.7 20.9 0.03 0.36 0.36 97 1004.5
20260506222025 14 222 8.0 27.4 0.03 0.36 0.36 97 1004.4
20260506221527 14 233 14.5 27.4 0.03 0.36 0.36 97 1004.4
20260506221035 14 235 11.3 20.9 0.03 0.36 0.36 97 1004.4
20260506220531 14 255 11.3 24.1 0.05 0.36 0.36 97 1004.5
20260506220054 14 244 14.5 20.9 0.05 0.36 0.36 97 1004.6
20260506215526 14 229 11.3 19.3 0.08 0.36 0.36 97 1004.6
20260506215042 14 216 11.3 17.7 0.08 0.36 0.36 97 1004.6
20260506214520 14 240 8.0 19.3 0.10 0.36 0.36 97 1004.7
20260506214037 14 221 12.9 20.9 0.08 0.33 0.33 97 1004.6
20260506213546 14 238 12.9 20.9 0.08 0.33 0.33 97 1004.6
20260506213023 14 211 11.3 16.1 0.10 0.33 0.33 97 1004.6
20260506212540 14 222 6.4 16.1 0.10 0.33 0.33 98 1004.6
20260506212056 14 209 8.0 27.4 0.13 0.33 0.33 98 1004.6
20260506211520 14 218 11.3 27.4 0.18 0.33 0.33 98 1004.7
20260506211021 14 232 9.7 14.5 0.18 0.33 0.33 98 1004.7
20260506210519 14 219 8.0 19.3 0.18 0.30 0.30 98 1004.7
20260506210024 14 210 9.7 19.3 0.20 0.30 0.30 98 1004.7
20260506205518 14 192 8.0 14.5 0.18 0.28 0.28 98 1004.8
20260506205033 14 227 8.0 14.5 0.18 0.28 0.28 97 1004.8
20260506204534 14 186 8.0 17.7 0.18 0.25 0.25 97 1004.9
20260506204026 14 213 8.0 20.9 0.18 0.25 0.25 97 1005.0
20260506203557 14 228 11.3 20.9 0.18 0.25 0.25 97 1005.1
20260506203032 14 175 9.7 12.9 0.15 0.23 0.23 97 1005.2
20260506202544 14 222 6.4 14.5 0.15 0.23 0.23 97 1005.2
20260506202040 14 195 6.4 14.5 0.13 0.20 0.20 97 1005.3
20260506201529 14 199 6.4 12.9 0.08 0.15 0.15 97 1005.3
20260506201030 15 199 6.4 12.9 0.10 0.15 0.15 97 1005.3
20260506200515 15 240 4.8 12.9 0.08 0.13 0.13 97 1005.3
20260506200033 15 209 9.7 20.9 0.05 0.10 0.10 97 1005.3
20260506195524 15 242 8.0 20.9 0.05 0.10 0.10 97 1005.4
20260506195057 15 205 8.0 12.9 0.05 0.10 0.10 97 1005.4
20260506194529 15 214 8.0 16.1 0.03 0.08 0.08 96 1005.5
20260506194047 15 213 1.6 11.3 0.03 0.08 0.08 96 1005.6
20260506193524 15 207 6.4 17.7 0.03 0.08 0.08 96 1005.7
20260506193034 15 216 9.7 17.7 0.03 0.08 0.08 96 1005.7
20260506192546 15 211 9.7 12.9 0.03 0.08 0.08 96 1005.7
20260506192055 15 197 9.7 14.5 0.03 0.08 0.08 96 1005.7
20260506191547 15 213 8.0 14.5 0.03 0.08 0.08 96 1005.5
20260506191039 15 205 6.4 16.1 0.00 0.05 0.05 96 1005.7
20260506190521 15 210 8.0 16.1 0.03 0.05 0.05 95 1005.7
20260506190033 15 199 9.7 17.7 0.03 0.05 0.05 95 1005.8
20260506185529 15 229 11.3 17.7 0.03 0.05 0.05 95 1005.8
20260506185019 15 206 6.4 11.3 0.03 0.05 0.05 95 1005.7
20260506184551 15 207 4.8 11.3 0.03 0.05 0.05 95 1005.5
20260506184041 15 163 3.2 11.3 0.05 0.05 0.05 95 1005.6
20260506183559 15 209 1.6 11.3 0.05 0.05 0.05 95 1005.7
20260506183019 15 202 4.8 11.3 0.05 0.05 0.05 94 1005.8
20260506182607 15 242 4.8 11.3 0.05 0.05 0.05 93 1006.0
20260506182059 15 204 4.8 11.3 0.05 0.05 0.05 93 1006.1
20260506181549 15 199 4.8 14.5 0.05 0.05 0.05 92 1006.2
20260506181039 15 238 6.4 11.3 0.05 0.05 0.05 92 1006.2
20260506180545 15 207 4.8 11.3 0.03 0.03 0.03 91 1006.4
20260506180025 16 202 4.8 14.5 0.03 0.03 0.03 90 1006.5
20260506175541 16 201 8.0 12.9 0.03 0.03 0.03 89 1006.6
20260506175032 16 166 4.8 12.9 0.03 0.03 0.03 88 1006.7
20260506174526 16 198 6.4 16.1 0.03 0.03 0.03 87 1006.8
20260506174035 16 221 6.4 16.1 0.00 0.00 0.00 85 1006.7
20260506173525 16 198 6.4 19.3 0.00 0.00 0.00 85 1006.9
20260506173041 16 216 9.7 19.3 0.00 0.00 0.00 83 1007.0
20260506172551 17 227 8.0 14.5 0.00 0.00 0.00 82 1007.0
20260506172043 17 212 9.7 22.5 0.00 0.00 0.00 81 1006.9
20260506171550 17 235 12.9 22.5 0.00 0.00 0.00 80 1006.8
20260506171039 17 249 14.5 25.7 0.00 0.00 0.00 79 1006.6
20260506170534 17 240 16.1 25.7 0.00 0.00 0.00 79 1006.6
20260506170020 17 232 9.7 17.7 0.00 0.00 0.00 78 1006.8
20260506165531 17 229 8.0 25.7 0.00 0.00 0.00 78 1006.8
20260506165024 17 232 17.7 25.7 0.00 0.00 0.00 78 1006.8
20260506164534 17 205 12.9 22.5 0.00 0.00 0.00 78 1006.9
20260506164043 17 249 11.3 22.5 0.00 0.00 0.00 78 1006.9
20260506163533 17 246 11.3 24.1 0.00 0.00 0.00 78 1006.9
20260506163032 17 242 16.1 25.7 0.00 0.00 0.00 79 1007.0
20260506162601 17 214 14.5 25.7 0.00 0.00 0.00 78 1007.0
20260506162048 17 231 16.1 20.9 0.00 0.00 0.00 78 1007.2
20260506161520 17 201 9.7 25.7 0.00 0.00 0.00 78 1007.3
20260506161024 17 217 16.1 25.7 0.00 0.00 0.00 79 1007.4
20260506160536 17 232 14.5 24.1 0.00 0.00 0.00 79 1007.5
20260506160027 17 223 17.7 24.1 0.00 0.00 0.00 78 1007.5
20260506155534 17 231 14.5 27.4 0.00 0.00 0.00 79 1007.4
20260506155018 17 254 17.7 25.7 0.00 0.00 0.00 78 1007.6
20260506154534 17 223 11.3 32.2 0.00 0.00 0.00 80 1007.7
20260506154046 17 254 19.3 32.2 0.00 0.00 0.00 78 1007.7
20260506153522 17 251 11.3 20.9 0.00 0.00 0.00 79 1007.7
20260506153020 17 214 11.3 20.9 0.00 0.00 0.00 80 1007.8
20260506152524 17 263 14.5 20.9 0.00 0.00 0.00 80 1007.9
20260506152037 17 234 12.9 17.7 0.00 0.00 0.00 80 1007.9
20260506151547 17 261 12.9 20.9 0.00 0.00 0.00 79 1007.9
20260506151028 17 234 12.9 27.4 0.00 0.00 0.00 79 1008.1
20260506150559 17 242 16.1 29.0 0.00 0.00 0.00 79 1008.0
20260506150022 17 234 20.9 29.0 0.00 0.00 0.00 78 1008.1
20260506145536 17 209 12.9 30.6 0.00 0.00 0.00 77 1008.1
20260506145026 17 242 17.7 30.6 0.00 0.00 0.00 77 1008.2
20260506144538 17 217 12.9 25.7 0.00 0.00 0.00 77 1008.2
20260506144040 17 211 14.5 25.7 0.00 0.00 0.00 78 1007.9
20260506143519 17 210 9.7 25.7 0.00 0.00 0.00 78 1007.9
20260506143019 17 221 14.5 25.7 0.00 0.00 0.00 78 1008.1
20260506142534 17 210 16.1 25.7 0.00 0.00 0.00 79 1008.1
20260506142044 17 259 12.9 29.0 0.00 0.00 0.00 80 1008.1
20260506141525 17 271 12.9 30.6 0.00 0.00 0.00 78 1007.9
20260506141020 17 250 14.5 29.0 0.00 0.00 0.00 77 1007.9
20260506140540 17 226 12.9 29.0 0.00 0.00 0.00 79 1007.7
20260506140033 17 208 11.3 19.3 0.00 0.00 0.00 79 1007.7
20260506135528 17 222 11.3 25.7 0.00 0.00 0.00 79 1007.7
20260506135038 17 231 12.9 25.7 0.00 0.00 0.00 79 1007.6
20260506134550 17 214 11.3 22.5 0.00 0.00 0.00 79 1007.5
20260506134024 17 246 11.3 22.5 0.00 0.00 0.00 81 1007.7
20260506133551 17 236 16.1 30.6 0.00 0.00 0.00 82 1007.8
20260506133033 17 261 14.5 30.6 0.00 0.00 0.00 81 1007.9
20260506132526 17 200 6.4 16.1 0.00 0.00 0.00 81 1007.9
20260506132039 17 206 9.7 19.3 0.00 0.00 0.00 81 1008.0
20260506131531 16 228 12.9 19.3 0.00 0.00 0.00 81 1008.0
20260506131039 16 223 4.8 14.5 0.00 0.00 0.00 81 1008.0
20260506130533 16 221 4.8 16.1 0.00 0.00 0.00 82 1008.1
20260506130015 16 219 6.4 20.9 0.00 0.00 0.00 82 1008.2
20260506125533 16 204 9.7 29.0 0.00 0.00 0.00 82 1008.2
20260506125022 16 266 16.1 27.4 0.00 0.00 0.00 82 1008.2
20260506124539 16 224 16.1 24.1 0.00 0.00 0.00 82 1008.2
20260506124048 16 246 12.9 24.1 0.00 0.00 0.00 83 1008.1
20260506123528 16 219 11.3 20.9 0.00 0.00 0.00 83 1008.2
20260506123048 16 232 12.9 20.9 0.00 0.00 0.00 83 1008.2
20260506122518 16 218 16.1 20.9 0.00 0.00 0.00 85 1008.4
20260506122017 16 206 12.9 19.3 0.00 0.00 0.00 84 1008.2
20260506121533 16 227 9.7 19.3 0.00 0.00 0.00 86 1008.1
20260506121048 16 215 9.7 19.3 0.00 0.00 0.00 86 1008.2
20260506120601 15 209 9.7 29.0 0.00 0.00 0.00 86 1008.3
20260506120016 15 227 9.7 25.7 0.00 0.00 0.00 87 1008.2
20260506115528 15 234 14.5 25.7 0.00 0.00 0.00 87 1008.4
20260506115014 15 249 17.7 25.7 0.00 0.00 0.00 87 1008.5
20260506114532 15 264 11.3 30.6 0.00 0.00 0.00 87 1008.4
20260506114040 15 225 16.1 30.6 0.00 0.00 0.00 87 1008.4
20260506113520 15 219 6.4 16.1 0.00 0.00 0.00 87 1008.3
20260506113017 15 217 9.7 19.3 0.00 0.00 0.00 88 1008.5
20260506112530 15 212 9.7 22.5 0.00 0.00 0.00 87 1008.6
20260506112026 15 206 12.9 22.5 0.00 0.00 0.00 87 1008.6
20260506111525 15 212 11.3 19.3 0.00 0.00 0.00 87 1008.7
20260506111033 15 209 8.0 17.7 0.00 0.00 0.00 87 1008.7
20260506110543 15 247 11.3 17.7 0.00 0.00 0.00 87 1008.6
20260506110024 15 235 9.7 20.9 0.00 0.00 0.00 87 1008.7
20260506105536 15 222 9.7 17.7 0.00 0.00 0.00 87 1008.7
20260506105045 15 225 9.7 17.7 0.00 0.00 0.00 87 1008.7
20260506104520 14 227 9.7 17.7 0.00 0.00 0.00 87 1008.6
20260506104041 14 193 8.0 16.1 0.00 0.00 0.00 87 1008.4
20260506103517 14 208 6.4 16.1 0.00 0.00 0.00 88 1008.4
20260506103029 14 236 9.7 16.1 0.00 0.00 0.00 88 1008.5
20260506102602 14 207 8.0 16.1 0.00 0.00 0.00 87 1008.6
20260506102038 14 192 6.4 12.9 0.00 0.00 0.00 87 1008.4
20260506101527 14 203 4.8 12.9 0.00 0.00 0.00 87 1008.5
20260506100522 14 240 8.0 16.1 0.00 0.00 0.00 87 1008.4
20260506100020 14 247 8.0 14.5 0.00 0.00 0.00 86 1008.4
20260506095535 14 213 6.4 14.5 0.00 0.00 0.00 86 1008.3
20260506095025 14 221 8.0 16.1 0.00 0.00 0.00 86 1008.4
20260506094548 14 245 6.4 16.1 0.00 0.00 0.00 86 1008.3
20260506094022 14 200 6.4 14.5 0.00 0.00 0.00 86 1008.3
20260506093517 14 199 6.4 16.1 0.00 0.00 0.00 86 1008.3
20260506093021 14 222 6.4 14.5 0.00 0.00 0.00 86 1008.3
20260506092533 14 227 8.0 14.5 0.00 0.00 0.00 85 1008.3
20260506092047 14 227 6.4 14.5 0.00 0.00 0.00 85 1008.3
20260506091521 14 205 8.0 14.5 0.00 0.00 0.00 84 1008.3
20260506091033 14 213 6.4 14.5 0.00 0.00 0.00 84 1008.2
20260506090536 14 246 8.0 17.7 0.00 0.00 0.00 84 1008.2
20260506090048 15 207 8.0 17.7 0.00 0.00 0.00 84 1008.4
20260506085539 15 240 6.4 17.7 0.00 0.00 0.00 84 1008.3
20260506085036 15 211 8.0 14.5 0.00 0.00 0.00 83 1008.3
20260506084519 15 208 8.0 12.9 0.00 0.00 0.00 82 1008.4
20260506084033 15 203 6.4 11.3 0.00 0.00 0.00 82 1008.4
20260506083522 15 236 4.8 16.1 0.00 0.00 0.00 82 1008.4
20260506083042 15 211 4.8 16.1 0.00 0.00 0.00 81 1008.4
20260506082517 15 209 8.0 14.5 0.00 0.00 0.00 80 1008.5
20260506082025 15 227 6.4 14.5 0.00 0.00 0.00 80 1008.5
20260506081520 15 227 8.0 14.5 0.00 0.00 0.00 80 1008.6
20260506081027 15 230 6.4 12.9 0.00 0.00 0.00 80 1008.5
20260506080520 15 218 8.0 19.3 0.00 0.00 0.00 80 1008.4
20260506073046 16 208 8.0 17.7 0.00 0.00 0.00 79 1008.5
20260506072533 16 238 9.7 17.7 0.00 0.00 0.00 78 1008.5
20260506072026 16 209 9.7 12.9 0.00 0.00 0.00 78 1008.6
20260506071025 16 259 9.7 19.3 0.00 0.00 0.00 77 1008.4
20260506070525 16 217 9.7 19.3 0.00 0.00 0.00 77 1008.4
20260506062024 16 228 6.4 12.9 0.00 0.00 0.00 77 1008.5
20260506061541 16 235 6.4 12.9 0.00 0.00 0.00 77 1008.5
20260506061023 16 236 6.4 11.3 0.00 0.00 0.00 76 1008.5
20260506060535 16 244 8.0 14.5 0.00 0.00 0.00 76 1008.5